Tracking 32420 objects as of 9-Dec-2025
HD Live streaming from Space Station
objects crossing your sky now

NORBY-2

Track NORBY-2 now!
10-day predictions
NORBY-2 is classified as:


NORAD ID: 57179
Int'l Code: 2023-091P
Perigee: 517.7 km
Apogee: 541.1 km
Inclination: 97.5 °
Period: 95.1 minutes
Semi major axis: 6900 km
RCS: Unknown
Launch date: June 27, 2023
Source: (TBD)
Launch site: VOSTOCHNY COSMODROME (VOSTO)

Uplink (MHz):
Downlink (MHz): 435.600
Beacon (MHz):
Mode: LoRa
Call sign:
Status: Active

Your satellite tracking list
Your tracking list is empty




NASA's NSSDC Master Catalog

Two Line Element Set (TLE):
1 57179U 23091P   25342.87939174  .00007696  00000-0  41900-3 0  9993
2 57179  97.5389  35.6813 0016967  66.7333 293.5683 15.14591065134961
Source of the keplerian elements: AFSPC